AMAZONAS NEXUS

Last updated on Tue Sep 16 2025 00:02:51 GMT+0000 (Coordinated Universal Time)

1 55508U 23017A 25257.50193787 -.00000295 00000+0 00000+0 0 9992 2 55508 0.0445 34.9898 0002585 102.5608 335.8706 1.00269519 4280
UTC large
Height (km)
Speed (km/s)
/
Latitude / Longitude
Inclination (degrees)
Orbital Period (minutes)
Azimuth
Elevation
Range (km)
Doppler Factor

Next 0 passes for location: London (51.5072 / 0.1276)

Sorry there are no passes over London.